Погода в Кистёре

Россия / Брянская область     52°24′20″N   33°06′37″E
темп.,
°C
ветер,
м/с
пор.,
м/с
влажн.,
%
обл.,
%
осадки,
мм/ч
давл.,
гПа
погр.,
м
17 мая, пн
пн1700:00+13в338642 0.0 101135
03:00+13в3787100 0.0 1010117
06:00+13всв41389100 0.3 1009308
09:00+18всв71385100 0.8 1006522
12:00+23вюв71366100 0.0 10041078
15:00+23юв7106698 0.0 10041350
18:00+22юв6107474 0.0 1002792
21:00+18вюв6148889 0.8 1002478
18 мая, вт
вт1800:00+17юв5139640 1.7 1003431
03:00+16ю51098100 1.7 1003352
06:00+15юв3799100 0.0 1004243
09:00+17ююв4891100 0.4 1005661
12:00+18юв6984100 1.8 1005832
15:00+19ююв6979100 3.1 1004980
18:00+15юв4994100 2.5 1004337
21:00+14вюв369514 2.8 1004118
19 мая, ср
ср1900:00+13юв3696100 0.0 1004115
03:00+12юв359694 0.0 100495
06:00+13вюв359599 0.0 1004118
09:00+14юв389396 0.1 1004379
12:00+17ююв568060 0.4 1004932
15:00+16ююв6781100 1.5 1005727
18:00+17ю57764 0.1 10051029
21:00+12юв339057 0.4 100524
20 мая, чт
чт2000:00+11вюв22916 0.2 100514
03:00+10ююв229653 1.3 100521
06:00+10ююз249733 1.3 1005110
09:00+13юз4689100 1.3 1006631
12:00+13зюз91087100 0.4 1007776
15:00+15з7137097 0.5 10091650
18:00+15зсз4778100 0.3 1010772
21:00+12ю1185100 0.3 101210
21 мая, пт
пт2100:00+11ююз3592100 0.0 101376
03:00+10юз359595 0.0 101491
06:00+11ююз259681 0.0 1015167
09:00+12ю2593100 0.0 1016259
12:00+12ююв2494100 0.3 1016209
15:00+14ююв3595100 1.9 1016363
18:00+14зюз1190100 0.7 101425
21:00+13с2398100 2.3 101485